COSMOS 2499 DEB, 49931

Orbit data source: Space-Track

COSMOS 2499 DEB, 49931 is space debris in LEO originally from a launch on Fri, 23 May 2014 UTC launched from the Plesetsk Missile And Space Complex (PKMTR). Debris objects in space refer to the collection of defunct objects orbiting the Earth. Examples of debris include non-operational satellites, rocket bodies, and fragments generated from explosions, collisions, or faulty payload assembly.

Loading next visibility...
Identifier
49931, 2014-028N
Orbit
LEO
Country
Flag of CISCIS
Related business
Manufacturer
TsNIIKhM
Mission
Spacecraft
Bus & Motor
Unknown
Mass
Unknown
Launch date (UTC)
2014-05-23 (12 years ago)
Launch vehicle
Unknown
Launch site
Plesetsk Missile And Space Complex (PKMTR)
Object type
Payload
Rocket body
Debris
Shape & HBR
Unknown shape, 0.1 m
Radar Cross Section
Medium (>0.1 m² and <1 m²)

Expand to show TLE details & history
Last TLE update: 3 days ago

TLE from 3 days ago
0 COSMOS 2499 DEB
1 49931U 14028N   26170.50602726  .00004092  00000-0  13133-1 0  9992
2 49931  82.5387 251.9733 0242321 293.7121  63.8734 12.92985536218158
Epoch: 2026-06-19T12:08Z
TLE epoch observation values (Epoch: 2026-06-19T12:08:40.755Z)
Latitude
-0.00003°
Longitude
162.06946°
Altitude
1,214.325 km
Speed
7.284 km/s
True Right ascension
16h 47m 53s
True Declination
0° 00' 00"
Sunlit
Object was in full shadow at epoch
Visualization orbit readout
Latitude
Unknown
Longitude
Unknown
Altitude
Unknown
Speed
Unknown
Apparent Right ascension
Unknown
Apparent Declination
Unknown
Sunlit
N/A
Visualization observer readout
Local Sidereal Time
21:31:12
Azimuth
Unknown
Elevation
Unknown
Doppler factor
Unknown
Orbital elements
Apogee altitude
1,472.716 km
Perigee altitude
1,101.232 km
Semi-major axis
7,665.111 km
Eccentricity
0.02423
Inclination
82.5387°
RAAN
251.9733°
Arg. of periapsis
293.7121°
True anomaly
66.39934°
Mean anomaly
63.8734°
Eccentric anomaly
65.13307°
Mean motion
3.23419 °/min
Orbital period
111.31 mins
BSTAR
0.013133
Loading maneuver chart data...
Computing Atmospheric mass density...
Loading historical data...
Loading historical data...
Loading historical data...
Loading historical data...
Loading historical data...
Loading historical data...
Loading historical data...

Documentation

Showing up to 5 results
|